Weather History for Trinity Center, CA

Change the Weather History Date:

Sunday, February 17, 2013

  Actual Average (KMHS) Record (KMHS)
Temperature  
Mean Temperature 44 °F 38 °F  
Max Temperature 59 °F 49 °F 66 °F (2007)
Min Temperature 28 °F 28 °F 3 °F (1938)
Degree Days  
Heating Degree Days 22 27  
Month to date heating degree days 467  
Since 1 July heating degree days 3693  
Cooling Degree Days 0 0  
Month to date cooling degree days 0  
Year to date cooling degree days 0  
Moisture  
Dew Point 26 °F    
Average Humidity 66    
Maximum Humidity 100    
Minimum Humidity 20    
Precipitation  
Precipitation 0.00 in 0.28 in 3.88 in (2004)
Month to date precipitation 4.22  
Year to date precipitation 11.28  
Sea Level Pressure  
Sea Level Pressure 30.10 in    
Wind  
Wind Speed 3 mph (SW)    
Max Wind Speed 9 mph    
Max Gust Speed -    
Visibility 10 miles    
Events      
T = Trace of Precipitation, MM = Missing Value Source: NWS Daily Summary

Daily Weather History Graph

Daily Weather History Graph

Search for Another Location

Airport:

Trip Planner

Search our weather history database for the weather conditions in past years. The results will help you decide how hot, cold, wet, or windy it might be!

Date:

Astronomy

Feb. 17, 2013 Rise Set
Actual Time 7:01 AM PST 5:48 PM PST
Civil Twilight 6:33 AM PST 6:16 PM PST
Nautical Twilight 6:01 AM PST 6:48 PM PST
Astronomical Twilight 5:30 AM PST 7:20 PM PST
Moon 10:55 AM PST (2/17) 12:52 AM PST (2/17)
Length of Visible Light 11h 42m
Length of Day
10h 46m
Waxing Crescent, 50% of the Moon is Illuminated
Feb 17
Waxing Crescent
Feb 17
First Quarter
Feb 25
Full
Mar 4
Last Quarter
Mar 11
New

Hourly Weather History & Observations

Time (PST) Temp. Windchill Dew Point Humidity Pressure Visibility Wind Dir Wind Speed Gust Speed Precip Events Conditions
12:15 AM 32.0 °F 28.7 °F 28.4 °F 87% 30.16 in 10.0 mi WSW 3.5 mph - N/A   Clear
12:35 AM 32.0 °F 28.7 °F 28.4 °F 87% 30.16 in 10.0 mi WSW 3.5 mph - N/A   Clear
12:55 AM 32.0 °F 27.5 °F 28.4 °F 87% 30.16 in 10.0 mi West 4.6 mph - N/A   Clear
1:15 AM 32.0 °F 28.7 °F 28.4 °F 87% 30.16 in 9.0 mi West 3.5 mph - N/A   Clear
1:35 AM 30.2 °F 25.4 °F 28.4 °F 93% 30.16 in 10.0 mi West 4.6 mph - N/A   Clear
1:55 AM 30.2 °F 26.7 °F 28.4 °F 93% 30.15 in 10.0 mi WSW 3.5 mph - N/A   Clear
2:15 AM 28.4 °F - 26.6 °F 93% 30.15 in 10.0 mi Calm Calm - N/A   Clear
2:35 AM 28.4 °F 24.6 °F 28.4 °F 100% 30.15 in 10.0 mi West 3.5 mph - N/A   Partly Cloudy
2:55 AM 28.4 °F - 26.6 °F 93% 30.14 in 10.0 mi Calm Calm - N/A   Partly Cloudy
3:15 AM 28.4 °F 23.3 °F 26.6 °F 93% 30.14 in 10.0 mi West 4.6 mph - N/A   Clear
3:35 AM 28.4 °F 23.3 °F 24.8 °F 86% 30.14 in 10.0 mi WNW 4.6 mph - N/A   Clear
3:55 AM 28.4 °F - 26.6 °F 93% 30.15 in 10.0 mi Calm Calm - N/A   Partly Cloudy
4:15 AM 28.4 °F - 26.6 °F 93% 30.15 in 10.0 mi Calm Calm - N/A   Mostly Cloudy
4:35 AM 28.4 °F - 26.6 °F 93% 30.15 in 10.0 mi Calm Calm - N/A   Mostly Cloudy
4:55 AM 28.4 °F - 24.8 °F 86% 30.15 in 10.0 mi Calm Calm - N/A   Partly Cloudy
5:15 AM 28.4 °F - 26.6 °F 93% 30.16 in 10.0 mi Calm Calm - N/A   Partly Cloudy
5:35 AM 28.4 °F - 26.6 °F 93% 30.15 in 10.0 mi Calm Calm - N/A   Partly Cloudy
5:55 AM 28.4 °F 24.6 °F 26.6 °F 93% 30.15 in 10.0 mi South 3.5 mph - N/A   Clear
6:15 AM 32.0 °F 28.7 °F 28.4 °F 87% 30.14 in 10.0 mi South 3.5 mph - N/A   Clear
6:35 AM 28.4 °F - 28.4 °F 100% 30.14 in 10.0 mi Calm Calm - N/A   Clear
6:55 AM 28.4 °F 24.6 °F 26.6 °F 93% 30.15 in 10.0 mi West 3.5 mph - N/A   Clear
7:15 AM 28.4 °F 24.6 °F 24.8 °F 86% 30.15 in 10.0 mi SSW 3.5 mph - N/A   Clear
7:35 AM 28.4 °F 22.2 °F 24.8 °F 86% 30.16 in 10.0 mi WSW 5.8 mph - N/A   Clear
7:55 AM 30.2 °F - 26.6 °F 86% 30.16 in 10.0 mi Calm Calm - N/A   Clear
8:15 AM 32.0 °F - 26.6 °F 80% 30.15 in 10.0 mi Calm Calm - N/A   Clear
8:35 AM 35.6 °F 32.8 °F 30.2 °F 81% 30.15 in 10.0 mi South 3.5 mph - N/A   Clear
8:55 AM 39.2 °F 37.0 °F 32.0 °F 75% 30.16 in 10.0 mi South 3.5 mph - N/A   Clear
9:15 AM 41.0 °F 35.8 °F 32.0 °F 70% 30.15 in 10.0 mi SSE 8.1 mph - N/A   Clear
9:35 AM 41.0 °F 37.1 °F 30.2 °F 65% 30.15 in 10.0 mi SSE 5.8 mph - N/A   Clear
9:55 AM 44.6 °F 42.2 °F 26.6 °F 49% 30.15 in 10.0 mi SSE 4.6 mph - N/A   Clear
10:15 AM 44.6 °F 41.4 °F 28.4 °F 53% 30.14 in 10.0 mi SE 5.8 mph - N/A   Clear
10:35 AM 46.4 °F 44.3 °F 26.6 °F 46% 30.14 in 10.0 mi South 4.6 mph - N/A   Clear
10:55 AM 48.2 °F - 26.6 °F 43% 30.13 in 10.0 mi SE 3.5 mph - N/A   Clear
11:15 AM 48.2 °F - 26.6 °F 43% 30.13 in 10.0 mi SE 6.9 mph - N/A   Clear
11:35 AM 50.0 °F - 24.8 °F 37% 30.13 in 10.0 mi SSE 4.6 mph - N/A   Clear
11:55 AM 50.0 °F - 23.0 °F 35% 30.12 in 10.0 mi SSE 3.5 mph - N/A   Clear
12:15 PM 51.8 °F - 24.8 °F 35% 30.11 in 10.0 mi SE 3.5 mph - N/A   Clear
12:35 PM 51.8 °F - 21.2 °F 30% 30.10 in 10.0 mi ESE 3.5 mph - N/A   Clear
12:55 PM 53.6 °F - 21.2 °F 28% 30.09 in 10.0 mi SE 5.8 mph - N/A   Clear
1:15 PM 53.6 °F - 21.2 °F 28% 30.08 in 10.0 mi SSE 5.8 mph - N/A   Clear
1:35 PM 55.4 °F - 24.8 °F 31% 30.07 in 10.0 mi SSE 5.8 mph - N/A   Clear
1:55 PM 55.4 °F - 23.0 °F 29% 30.06 in 10.0 mi East 3.5 mph - N/A   Clear
2:15 PM 57.2 °F - 21.2 °F 25% 30.05 in 10.0 mi SSE 5.8 mph - N/A   Clear
2:35 PM 57.2 °F - 17.6 °F 21% 30.05 in 10.0 mi SSE 4.6 mph - N/A   Clear
2:55 PM 57.2 °F - 15.8 °F 20% 30.04 in 10.0 mi SSE 5.8 mph - N/A   Clear
3:15 PM 57.2 °F - 17.6 °F 21% 30.03 in 10.0 mi SSE 6.9 mph - N/A   Clear
3:35 PM 57.2 °F - 23.0 °F 27% 30.03 in 10.0 mi SSE 5.8 mph - N/A   Clear
3:55 PM 59.0 °F - 21.2 °F 23% 30.02 in 10.0 mi SSW 3.5 mph - N/A   Clear
4:15 PM 57.2 °F - 17.6 °F 21% 30.02 in 10.0 mi WSW 3.5 mph - N/A   Clear
4:35 PM 57.2 °F - 21.2 °F 25% 30.02 in 10.0 mi Calm Calm - N/A   Clear
4:55 PM 53.6 °F - 24.8 °F 33% 30.01 in 10.0 mi Calm Calm - N/A   Clear
5:15 PM 48.2 °F - 28.4 °F 46% 30.02 in 10.0 mi Calm Calm - N/A   Clear
5:35 PM 48.2 °F - 28.4 °F 46% 30.02 in 10.0 mi West 9.2 mph - N/A   Clear
5:55 PM 46.4 °F 43.5 °F 28.4 °F 50% 30.03 in 10.0 mi WNW 5.8 mph - N/A   Clear
6:15 PM 44.6 °F 43.1 °F 28.4 °F 53% 30.03 in 10.0 mi WSW 3.5 mph - N/A   Clear
6:35 PM 39.2 °F 35.9 °F 30.2 °F 70% 30.04 in 10.0 mi West 4.6 mph - N/A   Clear
6:55 PM 39.2 °F 35.9 °F 28.4 °F 65% 30.05 in 10.0 mi WNW 4.6 mph - N/A   Clear
7:15 PM 37.4 °F 32.8 °F 28.4 °F 70% 30.05 in 10.0 mi WNW 5.8 mph - N/A   Clear
7:35 PM 37.4 °F 34.9 °F 28.4 °F 70% 30.05 in 10.0 mi West 3.5 mph - N/A   Clear
7:55 PM 35.6 °F - 28.4 °F 75% 30.05 in 10.0 mi Calm Calm - N/A   Clear
8:15 PM 33.8 °F 30.8 °F 28.4 °F 81% 30.05 in 10.0 mi West 3.5 mph - N/A   Clear
8:35 PM 32.0 °F - 28.4 °F 87% 30.06 in 10.0 mi Calm Calm - N/A   Clear
9:15 PM 32.0 °F 27.5 °F 26.6 °F 80% 30.06 in 10.0 mi West 4.6 mph - N/A   Clear
9:35 PM 32.0 °F 27.5 °F 26.6 °F 80% 30.06 in 10.0 mi WNW 4.6 mph - N/A   Clear
9:55 PM 32.0 °F 27.5 °F 26.6 °F 80% 30.07 in 10.0 mi West 4.6 mph - N/A   Clear
10:15 PM 32.0 °F 28.7 °F 26.6 °F 80% 30.07 in 9.0 mi WNW 3.5 mph - N/A   Clear
10:35 PM 32.0 °F 28.7 °F 26.6 °F 80% 30.07 in 10.0 mi West 3.5 mph - N/A   Clear
10:55 PM 32.0 °F 28.7 °F 26.6 °F 80% 30.07 in 10.0 mi West 3.5 mph - N/A   Clear
11:15 PM 32.0 °F 28.7 °F 26.6 °F 80% 30.07 in 7.0 mi West 3.5 mph - N/A   Clear
11:35 PM 30.2 °F - 26.6 °F 86% 30.07 in 8.0 mi Calm Calm - N/A   Clear
11:55 PM 30.2 °F - 26.6 °F 86% 30.07 in 10.0 mi Calm Calm - N/A   Clear